When you browse on this site, cookies collect data to enhance your experience and personalize the content and advertising you see.
Visit our Privacy Policy to learn more. By continuing to use the site, you agree to this use of cookies and data.
  • In Hungary
  • List of Countries
  • For 7 days
  • Water Temperature
  • Satellite Maps
  • Weather Map
  • News
  • Weather Widgets
  • user-avatar
    Login

    Hourly Weather Globino

    Today, 23 April, Tuesday

    Time Temperature Precipitation Wind Pressure Humidity
    00:00 +13°C° 0 mm 1 mps 762 mmHg 48%
    01:00 +12°C° 0 mm 1 mps 762 mmHg 48%
    02:00 +12°C° 0 mm 1 mps 762 mmHg 48%
    03:00 +12°C° 0 mm 1 mps 762 mmHg 49%
    04:00 +12°C° 0 mm 1 mps 763 mmHg 49%
    05:00 +10°C° 0 mm 2 mps 763 mmHg 50%
    06:00 +12°C° 0 mm 2 mps 763 mmHg 49%
    07:00 +13°C° 0 mm 2 mps 763 mmHg 47%
    08:00 +14°C° 0 mm 2 mps 763 mmHg 46%
    09:00 +15°C° 0 mm 1 mps 763 mmHg 43%
    10:00 +16°C° 0 mm 1 mps 763 mmHg 40%
    11:00 +18°C° 0 mm 1 mps 763 mmHg 37%
    12:00 +18°C° 0 mm 1 mps 763 mmHg 37%
    13:00 +18°C° 0 mm 1 mps 763 mmHg 36%
    14:00 +18°C° 0 mm 1 mps 763 mmHg 36%
    15:00 +16°C° 0 mm 0 mps 763 mmHg 36%
    16:00 +16°C° 0 mm 0 mps 763 mmHg 37%
    17:00 +16°C° 0 mm 0 mps 762 mmHg 38%
    18:00 +15°C° 0 mm 0 mps 763 mmHg 41%
    19:00 +14°C° 0 mm 0 mps 763 mmHg 45%
    20:00 +13°C° 0 mm 1 mps 763 mmHg 48%
    21:00 +13°C° 0 mm 1 mps 763 mmHg 50%
    22:00 +12°C° 0 mm 1 mps 763 mmHg 51%
    23:00 +11°C° 0 mm 0 mps 763 mmHg 52%

    Tomorrow, 24 April, Wednesday

    Time Temperature Precipitation Wind Pressure Humidity
    00:00 +11°C° 0 mm 1 mps 763 mmHg 53%
    01:00 +11°C° 0 mm 1 mps 763 mmHg 54%
    02:00 +11°C° 0 mm 1 mps 764 mmHg 55%
    03:00 +11°C° 0 mm 1 mps 764 mmHg 57%
    04:00 +10°C° 0 mm 1 mps 764 mmHg 58%
    05:00 +10°C° 0 mm 1 mps 764 mmHg 60%
    06:00 +12°C° 0 mm 1 mps 764 mmHg 56%
    07:00 +13°C° 0 mm 1 mps 764 mmHg 53%
    08:00 +15°C° 0 mm 1 mps 764 mmHg 49%
    09:00 +18°C° 0 mm 1 mps 764 mmHg 44%
    10:00 +19°C° 0 mm 1 mps 764 mmHg 40%
    11:00 +18°C° 0 mm 0 mps 764 mmHg 36%
    12:00 +19°C° 0 mm 0 mps 763 mmHg 35%
    13:00 +19°C° 0 mm 0 mps 763 mmHg 34%
    14:00 +19°C° 0 mm 0 mps 763 mmHg 33%
    15:00 +19°C° 0 mm 0 mps 763 mmHg 34%
    16:00 +19°C° 0 mm 0 mps 762 mmHg 34%
    17:00 +20°C° 0 mm 1 mps 762 mmHg 35%
    18:00 +19°C° 0 mm 1 mps 762 mmHg 39%
    19:00 +18°C° 0 mm 1 mps 762 mmHg 42%
    20:00 +15°C° 0 mm 2 mps 762 mmHg 46%
    21:00 +15°C° 0 mm 2 mps 762 mmHg 47%
    22:00 +14°C° 0 mm 1 mps 762 mmHg 49%
    23:00 +14°C° 0 mm 1 mps 763 mmHg 50%

    Day after tomorrow, 25 April, Thursday

    Time Temperature Precipitation Wind Pressure Humidity
    00:00 +13°C° 0 mm 2 mps 763 mmHg 51%
    01:00 +13°C° 0 mm 2 mps 763 mmHg 53%
    02:00 +12°C° 0 mm 2 mps 763 mmHg 54%
    03:00 +12°C° 0 mm 1 mps 763 mmHg 56%
    04:00 +12°C° 0 mm 1 mps 763 mmHg 58%
    05:00 +11°C° 0 mm 1 mps 763 mmHg 60%
    06:00 +13°C° 0 mm 1 mps 763 mmHg 56%
    07:00 +15°C° 0 mm 1 mps 763 mmHg 53%
    08:00 +16°C° 0 mm 1 mps 763 mmHg 49%
    09:00 +19°C° 0 mm 1 mps 763 mmHg 46%
    10:00 +20°C° 0 mm 1 mps 763 mmHg 42%
    11:00 +22°C° 0 mm 1 mps 762 mmHg 39%
    12:00 +22°C° 0 mm 1 mps 762 mmHg 38%
    13:00 +23°C° 0 mm 1 mps 762 mmHg 37%
    14:00 +23°C° 0 mm 1 mps 762 mmHg 36%
    15:00 +23°C° 0 mm 1 mps 761 mmHg 39%
    16:00 +22°C° 0 mm 1 mps 761 mmHg 41%
    17:00 +22°C° 0 mm 1 mps 761 mmHg 43%
    18:00 +20°C° 0 mm 1 mps 761 mmHg 46%
    19:00 +19°C° 0 mm 1 mps 761 mmHg 48%
    20:00 +18°C° 0 mm 1 mps 761 mmHg 50%
    21:00 +16°C° 0 mm 1 mps 761 mmHg 51%
    22:00 +16°C° 0 mm 1 mps 761 mmHg 53%
    23:00 +15°C° 0 mm 1 mps 761 mmHg 54%

    26 April, Friday

    Time Temperature Precipitation Wind Pressure Humidity
    00:00 +15°C° 0 mm 1 mps 761 mmHg 55%
    01:00 +14°C° 0 mm 1 mps 761 mmHg 56%
    02:00 +14°C° 0 mm 1 mps 761 mmHg 57%
    03:00 +14°C° 0 mm 1 mps 761 mmHg 58%
    04:00 +14°C° 0 mm 1 mps 761 mmHg 60%
    05:00 +13°C° 0 mm 0 mps 760 mmHg 61%
    06:00 +15°C° 0 mm 1 mps 760 mmHg 58%
    07:00 +16°C° 0 mm 1 mps 760 mmHg 56%
    08:00 +19°C° 0 mm 1 mps 760 mmHg 53%
    09:00 +20°C° 0 mm 1 mps 760 mmHg 49%
    10:00 +21°C° 0 mm 1 mps 760 mmHg 45%
    11:00 +23°C° 0 mm 2 mps 760 mmHg 40%
    12:00 +23°C° 0 mm 2 mps 760 mmHg 41%
    13:00 +23°C° 0 mm 2 mps 759 mmHg 41%
    14:00 +23°C° 0 mm 2 mps 759 mmHg 41%
    15:00 +23°C° 0 mm 2 mps 759 mmHg 44%
    16:00 +22°C° 0 mm 1 mps 759 mmHg 46%
    17:00 +22°C° 0 mm 1 mps 758 mmHg 49%
    18:00 +21°C° 0 mm 1 mps 758 mmHg 50%
    19:00 +20°C° 0 mm 1 mps 758 mmHg 50%
    20:00 +19°C° 0 mm 1 mps 759 mmHg 51%
    21:00 +19°C° 0 mm 1 mps 758 mmHg 53%
    22:00 +18°C° 0 mm 1 mps 758 mmHg 56%
    23:00 +16°C° 0 mm 1 mps 758 mmHg 58%

    27 April, Saturday

    Time Temperature Precipitation Wind Pressure Humidity
    00:00 +16°C° 0 mm 1 mps 758 mmHg 59%
    01:00 +15°C° 0 mm 1 mps 758 mmHg 60%
    02:00 +15°C° 0 mm 1 mps 758 mmHg 61%
    03:00 +15°C° 0 mm 1 mps 758 mmHg 63%
    04:00 +14°C° 0 mm 1 mps 758 mmHg 66%
    05:00 +14°C° 0 mm 1 mps 758 mmHg 68%
    06:00 +15°C° 0 mm 1 mps 758 mmHg 64%
    07:00 +18°C° 0 mm 1 mps 758 mmHg 59%
    08:00 +20°C° 0 mm 1 mps 758 mmHg 55%
    09:00 +20°C° 0 mm 2 mps 757 mmHg 52%
    10:00 +21°C° 0 mm 2 mps 757 mmHg 50%
    11:00 +23°C° 0 mm 2 mps 757 mmHg 47%
    12:00 +22°C° 0.2 mm 3 mps 757 mmHg 48%
    13:00 +22°C° 0.2 mm 3 mps 756 mmHg 48%
    14:00 +22°C° 0.2 mm 3 mps 756 mmHg 49%
    15:00 +22°C° 0 mm 3 mps 755 mmHg 48%
    16:00 +22°C° 0 mm 3 mps 755 mmHg 47%
    17:00 +22°C° 0 mm 3 mps 755 mmHg 47%
    18:00 +20°C° 0 mm 3 mps 755 mmHg 50%
    19:00 +19°C° 0 mm 3 mps 755 mmHg 53%
    20:00 +17°C° 0 mm 3 mps 755 mmHg 57%
    21:00 +17°C° 0 mm 3 mps 755 mmHg 58%
    22:00 +16°C° 0 mm 3 mps 755 mmHg 60%
    23:00 +16°C° 0 mm 3 mps 755 mmHg 62%

    28 April, Sunday

    Time Temperature Precipitation Wind Pressure Humidity
    00:00 +16°C° 0 mm 3 mps 755 mmHg 62%
    01:00 +15°C° 0 mm 2 mps 755 mmHg 63%
    02:00 +15°C° 0 mm 2 mps 755 mmHg 64%
    03:00 +15°C° 0 mm 2 mps 755 mmHg 65%
    04:00 +15°C° 0 mm 2 mps 755 mmHg 66%
    05:00 +14°C° 0 mm 2 mps 755 mmHg 68%
    06:00 +16°C° 0 mm 2 mps 755 mmHg 63%
    07:00 +17°C° 0 mm 2 mps 755 mmHg 59%
    08:00 +19°C° 0 mm 2 mps 755 mmHg 54%
    09:00 +20°C° 0 mm 2 mps 755 mmHg 50%
    10:00 +21°C° 0 mm 3 mps 755 mmHg 45%
    11:00 +22°C° 0 mm 3 mps 754 mmHg 40%
    12:00 +22°C° 0 mm 3 mps 754 mmHg 40%
    13:00 +22°C° 0 mm 3 mps 754 mmHg 40%
    14:00 +22°C° 0 mm 3 mps 754 mmHg 40%
    15:00 +23°C° 0 mm 2 mps 754 mmHg 43%
    16:00 +21°C° 0 mm 2 mps 753 mmHg 47%
    17:00 +21°C° 0 mm 2 mps 753 mmHg 51%
    18:00 +20°C° 0 mm 2 mps 753 mmHg 51%
    19:00 +19°C° 0 mm 2 mps 753 mmHg 51%
    20:00 +19°C° 0 mm 2 mps 754 mmHg 51%
    21:00 +19°C° 0 mm 2 mps 754 mmHg 52%
    22:00 +18°C° 0 mm 3 mps 754 mmHg 54%
    23:00 +18°C° 0 mm 3 mps 754 mmHg 55%
    Show more